Satellite-Ground Cal/Val Site Overpasses Predictions

Prediction of Satellite NPP Overpassing Cal/Val Site: Antarctic Dome C

Ground Cal/Val Site Location: Latitude: -75.10, Longitude: 123.35; Satellite-Ground Site NADIR distance within 100 km.

Table of predicted overpasses for the next 14.0 days since TLE Epoch: 6/22/2018
Interval Starting Time Ending Time Minimum Distance Time Minimum Distance (km)
1 06/25/2018 14:54:45 06/25/2018 14:55:14 06/25/2018 14:54:59 20.73
2 06/26/2018 14:36:04 06/26/2018 14:36:18 06/26/2018 14:36:11 86.38
3 06/27/2018 07:37:35 06/27/2018 07:38:02 06/27/2018 07:37:49 33.28
4 06/28/2018 07:18:50 06/28/2018 07:19:08 06/28/2018 07:18:59 76.97
5 06/30/2018 15:01:04 06/30/2018 15:01:28 06/30/2018 15:01:16 57.44
6 07/01/2018 14:42:13 07/01/2018 14:42:38 07/01/2018 14:42:25 51.72
7 07/02/2018 07:43:54 07/02/2018 07:44:15 07/02/2018 07:44:04 68.31
8 07/03/2018 07:25:01 07/03/2018 07:25:28 07/03/2018 07:25:14 39.83
9 07/05/2018 15:07:27 07/05/2018 15:07:35 07/05/2018 15:07:31 94.90


NCC Satellite Cal/Val Overpasses Prediction Service
